Regional Weather Roundup
Issued by NWS

Home | Current Version | Previous Version | Graphics & Text | Print | Product List | Glossary On
Versions: 1 2 3 4 5 6 7 8 9 10 11 12 13 14 15 16 17 18 19 20 21 22 23 24 25 26 27 28 29 30 31 32 33 34 35 36 37 38 39 40 41 42 43 44 45 46 47 48 49 50
000
ASUS43 KIND 222359
RWRIN

WEATHER ROUNDUP FOR INDIANA
NATIONAL WEATHER SERVICE INDIANAPOLIS IN
700 PM EST THU FEB 22 2018

NOTE: "FAIR" INDICATES FEW OR NO CLOUDS BELOW 12,000 FEET WITH NO
SIGNIFICANT WEATHER AND/OR OBSTRUCTIONS TO VISIBILITY.

* - STATION DOES NOT REPORT WEATHER SUCH AS PRECIPITATION OR FOG.

+ - STATION NOT QUALITY CONTROLLED BY THE NATIONAL WEATHER SERVICE.
    USE DATA WITH CAUTION...ESPECIALLY DEWPOINT AND RELATIVE
    HUMIDITY OBSERVATIONS.

INZ001>003-010>013-019-020-230100-
NORTHWEST INDIANA

CITY           SKY/WX    TMP DP  RH WIND       PRES   REMARKS
GARY /AIRPORT/ CLOUDY    41  36  81 NE5       30.42R
MICHIGAN CITY+ CLOUDY    41  34  75 E6        30.43R
MONTICELLO +   CLOUDY    42  38  86 E10G20    30.34F
6HR MIN TEMP:  41; 6HR MAX TEMP:  45;

RENSSELAER +   CLOUDY    43  36  75 E12       30.38R

$$

LMZ046-743>745-230100-
SOUTHERN LAKE MICHIGAN

STATION/POSITION TIME  TEMP    WIND        PRES    WAVE
                       AIR SEA DIR/SP/G            HT
                 (UTC) (F)     (DEG/KT/KT) (MB)    (FT)
BURNS HARBOR     2340   42      90/  8/ 10 1030.5R
MICHIGAN CITY    2330   42      70/  9/ 13   N/A

$$

INZ004-005-014>016-021>024-230100-
NORTH CENTRAL INDIANA

CITY           SKY/WX    TMP DP  RH WIND       PRES   REMARKS
ELKHART        FAIR      39  32  75 E17G23    30.42F WCI  30
GOSHEN         CLOUDY    38  33  82 E16       30.41F WCI  29
6HR MIN TEMP:  38; 6HR MAX TEMP:  43;

PERU/GRISSOM   CLOUDY    40  40 100 E16       30.36F WCI  31
6HR MIN TEMP:  40; 6HR MAX TEMP:  44;

SOUTH BEND     MOCLDY    39  32  76 E12       30.41F WCI  32
6HR MIN TEMP:  39; 6HR MAX TEMP:  44;

WARSAW +       CLOUDY    37  34  87 MISG      30.40F

$$

INZ006>009-017-018-025>027-230100-
NORTHEAST INDIANA

CITY           SKY/WX    TMP DP  RH WIND       PRES   REMARKS
AUBURN +       CLOUDY    36  32  87 E13       30.46S WCI  27
FORT WAYNE     CLOUDY    37  34  89 NE20      30.45R WCI  27
6HR MIN TEMP:  37; 6HR MAX TEMP:  42;

KENDALLVILLE + CLOUDY    36  33  88 E10G21    30.44F WCI  28

$$

INZ028-029-035-036-043>045-051>053-230100-
WEST CENTRAL INDIANA

CITY           SKY/WX    TMP DP  RH WIND       PRES   REMARKS
CRAWFORDSVL +  CLOUDY    40  40 100 SE9         N/A  FOG     WCI  35
6HR MIN TEMP:  39; 6HR MAX TEMP:  43;

GREENCASTLE +  CLOUDY    43  41  93 SE7       30.36R
LAFAYETTE      CLOUDY    44  41  89 E13       30.35S
6HR MIN TEMP:  43; 6HR MAX TEMP:  45;

TERRE HAUTE    CLOUDY    45  42  89 SE5       30.37R
6HR MIN TEMP:  44; 6HR MAX TEMP:  46;


$$

INZ030>032-037>040-046>048-054>057-064-065-230100-
CENTRAL INDIANA

CITY           SKY/WX    TMP DP  RH WIND       PRES   REMARKS
COLUMBUS       CLOUDY    45 N/A N/A E8        30.37R
INDIANAPOLIS   CLOUDY    44  41  89 E9        30.36S
6HR MIN TEMP:  42; 6HR MAX TEMP:  44; 6HR PCP: TRACE;

-EAGLE CREEK   CLOUDY    45  40  82 E13       30.35F
6HR MIN TEMP:  42; 6HR MAX TEMP:  46;

KOKOMO +       CLOUDY    40  38  93 E17       30.37F WCI  31
6HR MIN TEMP:  40; 6HR MAX TEMP:  44;

MT COMFORT *+  CLOUDY    45  43  93 E9        30.37S
SHELBYVILLE    CLOUDY    45  41  86 E10       30.36S
6HR MIN TEMP:  44; 6HR MAX TEMP:  46;


$$

INZ033-034-041-042-049-050-058-059-230100-
EAST CENTRAL INDIANA

CITY           SKY/WX    TMP DP  RH WIND       PRES   REMARKS
MUNCIE         CLOUDY    47  41  80 E10       30.38S
6HR MIN TEMP:  42; 6HR MAX TEMP:  47;

RICHMOND +     CLOUDY    43  43 100 E12       30.39R

$$

INZ060-061-067>069-081>083-085>088-230100-
SOUTHWEST INDIANA

CITY           SKY/WX    TMP DP  RH WIND       PRES   REMARKS
EVANSVILLE     CLOUDY    51  49  92 N3        30.35R
6HR MIN TEMP:  47; 6HR MAX TEMP:  51;


$$

INZ062-063-066-070>080-084-089>092-230100-
SOUTH CENTRAL AND SOUTHEAST INDIANA

CITY           SKY/WX    TMP DP  RH WIND       PRES   REMARKS
BLOOMINGTON    CLOUDY    44  43  96 E8        30.34R FOG
6HR MIN TEMP:  44; 6HR MAX TEMP:  45;

FRENCH LICK *+ CLOUDY    45 N/A N/A E3        30.35R
MADISON *+     CLOUDY    45  43  93 E7        30.36F

$$





USA.gov is the U.S. government's official web portal to all federal, state and local government web resources and services.